| time (UTC) | temp F | wind direction | speed knots | gust knots | rain 1hr in | rain 24hr in | rain mn in | humidity % | barometer mb |
| 20260903130353 | 57 | 255 | 0.0 | 0.0 | 0.00 | 0.00 | 0.00 | 56 | 1010.4 |
| 20260903124839 | 58 | 203 | 0.0 | 0.0 | 0.00 | 0.00 | 0.00 | 56 | 1010.6 |
| 20260903123331 | 58 | 203 | 0.0 | 0.0 | 0.00 | 0.00 | 0.00 | 56 | 1010.5 |
| 20260903121839 | 58 | 157 | 0.0 | 0.0 | 0.00 | 0.00 | 0.00 | 54 | 1010.3 |
| 20260903120409 | 58 | 259 | 0.0 | 1.7 | 0.00 | 0.00 | 0.00 | 54 | 1010.8 |
| 20260903114852 | 58 | 210 | 0.0 | 1.7 | 0.00 | 0.00 | 0.00 | 55 | 1011.0 |
| 20260903113339 | 59 | 194 | 0.0 | 0.9 | 0.00 | 0.00 | 0.00 | 55 | 1011.0 |
| 20260903111830 | 60 | 236 | 0.0 | 0.0 | 0.00 | 0.00 | 0.00 | 53 | 1010.6 |
| 20260903110343 | 60 | 236 | 0.0 | 0.0 | 0.00 | 0.00 | 0.00 | 51 | 1010.7 |
| 20260903104859 | 60 | 298 | 0.0 | 1.7 | 0.00 | 0.00 | 0.00 | 49 | 1010.7 |
| 20260903103352 | 60 | 304 | 0.0 | 0.0 | 0.00 | 0.00 | 0.00 | 48 | 1010.7 |
| 20260903101845 | 60 | 304 | 0.0 | 0.0 | 0.00 | 0.00 | 0.00 | 48 | 1010.4 |
| 20260903100337 | 61 | 336 | 0.0 | 0.0 | 0.00 | 0.00 | 0.00 | 47 | 1010.2 |
| 20260903094854 | 62 | 76 | 0.0 | 0.0 | 0.00 | 0.00 | 0.00 | 46 | 1010.0 |
| 20260903093329 | 63 | 347 | 0.0 | 0.0 | 0.00 | 0.00 | 0.00 | 45 | 1009.5 |
| 20260903091827 | 63 | 9 | 0.0 | 0.0 | 0.00 | 0.00 | 0.00 | 44 | 1009.5 |
| 20260903090343 | 63 | 295 | 0.0 | 1.7 | 0.00 | 0.00 | 0.00 | 43 | 1009.5 |
| 20260903084900 | 64 | 303 | 0.0 | 0.9 | 0.00 | 0.00 | 0.00 | 40 | 1009.7 |
| 20260903083343 | 64 | 315 | 0.0 | 0.0 | 0.00 | 0.00 | 0.00 | 40 | 1009.2 |
| 20260903081830 | 64 | 321 | 0.0 | 0.0 | 0.00 | 0.00 | 0.00 | 39 | 1008.9 |
| 20260903080345 | 65 | 277 | 0.0 | 0.0 | 0.00 | 0.00 | 0.00 | 40 | 1008.8 |
| 20260903074849 | 65 | 309 | 0.0 | 0.0 | 0.00 | 0.00 | 0.00 | 39 | 1008.8 |
| 20260903073401 | 65 | 38 | 0.0 | 1.7 | 0.00 | 0.00 | 0.00 | 39 | 1008.5 |
| 20260903071836 | 65 | 325 | 0.0 | 1.7 | 0.00 | 0.00 | 0.00 | 41 | 1008.7 |
| 20260903070347 | 65 | 349 | 0.0 | 0.0 | 0.00 | 0.00 | 0.00 | 42 | 1008.6 |
| 20260903064836 | 65 | 194 | 0.0 | 4.3 | 0.00 | 0.00 | 0.00 | 41 | 1008.2 |
| 20260903063351 | 64 | 92 | 0.0 | 0.0 | 0.00 | 0.00 | 0.00 | 44 | 1008.0 |
| 20260903061831 | 65 | 40 | 0.0 | 0.0 | 0.00 | 0.00 | 0.00 | 42 | 1007.9 |
| 20260903060330 | 65 | 215 | 0.0 | 0.0 | 0.00 | 0.00 | 0.00 | 43 | 1007.7 |
| 20260903054841 | 66 | 126 | 0.0 | 1.7 | 0.00 | 0.00 | 0.00 | 41 | 1007.7 |
| 20260903053350 | 68 | 119 | 0.0 | 0.0 | 0.00 | 0.00 | 0.00 | 39 | 1007.6 |
| 20260903051832 | 69 | 223 | 0.0 | 1.7 | 0.00 | 0.00 | 0.00 | 37 | 1007.6 |
| 20260903050410 | 69 | 199 | 0.0 | 0.9 | 0.00 | 0.00 | 0.00 | 37 | 1007.6 |
| 20260903044852 | 70 | 211 | 0.0 | 1.7 | 0.00 | 0.00 | 0.00 | 35 | 1007.7 |
| 20260903043334 | 70 | 206 | 0.0 | 1.7 | 0.00 | 0.00 | 0.00 | 35 | 1007.7 |
| 20260903041909 | 70 | 205 | 0.0 | 0.0 | 0.00 | 0.00 | 0.00 | 37 | 1007.8 |
| 20260903040338 | 70 | 192 | 0.0 | 0.0 | 0.00 | 0.00 | 0.00 | 36 | 1007.7 |
| 20260903034837 | 71 | 197 | 0.0 | 0.9 | 0.00 | 0.00 | 0.00 | 35 | 1007.9 |
| 20260903033327 | 70 | 248 | 0.0 | 1.7 | 0.00 | 0.00 | 0.00 | 35 | 1007.7 |
| 20260903031823 | 70 | 202 | 0.0 | 0.0 | 0.00 | 0.00 | 0.00 | 36 | 1007.7 |
| 20260903030337 | 71 | 195 | 0.0 | 0.0 | 0.00 | 0.00 | 0.00 | 35 | 1007.4 |
| 20260903024827 | 73 | 207 | 0.0 | 0.0 | 0.00 | 0.00 | 0.00 | 34 | 1007.2 |
| 20260903023330 | 75 | 209 | 0.0 | 1.7 | 0.00 | 0.00 | 0.00 | 31 | 1007.1 |
| 20260903020352 | 76 | 198 | 0.0 | 1.7 | 0.00 | 0.00 | 0.00 | 30 | 1006.7 |
| 20260903014914 | 77 | 213 | 0.0 | 1.7 | 0.00 | 0.00 | 0.00 | 30 | 1006.6 |
| 20260903013348 | 78 | 225 | 0.0 | 1.7 | 0.00 | 0.00 | 0.00 | 29 | 1006.5 |
| 20260903011833 | 78 | 94 | 0.0 | 0.0 | 0.00 | 0.00 | 0.00 | 29 | 1006.4 |
| 20260903010333 | 80 | 259 | 0.0 | 0.0 | 0.00 | 0.00 | 0.00 | 29 | 1006.4 |
| 20260903004832 | 81 | 236 | 0.0 | 0.0 | 0.00 | 0.00 | 0.00 | 30 | 1006.4 |
| 20260903003352 | 82 | 218 | 0.0 | 1.7 | 0.00 | 0.00 | 0.00 | 28 | 1006.2 |
| 20260903001848 | 84 | 279 | 0.0 | 1.7 | 0.00 | 0.00 | 0.00 | 27 | 1006.0 |
| 20260903000337 | 85 | 360 | 0.0 | 2.6 | 0.00 | 0.00 | 0.00 | 25 | 1006.1 |
| 20260902234849 | 85 | 322 | 0.0 | 2.6 | 0.00 | 0.00 | 0.00 | 25 | 1006.1 |
| 20260902233351 | 86 | 218 | 0.0 | 1.7 | 0.00 | 0.00 | 0.00 | 24 | 1006.2 |
| 20260902231831 | 87 | 200 | 0.0 | 3.5 | 0.00 | 0.00 | 0.00 | 23 | 1006.3 |
| 20260902230350 | 88 | 263 | 0.9 | 2.6 | 0.00 | 0.00 | 0.00 | 23 | 1006.4 |
| 20260902224900 | 88 | 123 | 0.0 | 2.6 | 0.00 | 0.00 | 0.00 | 24 | 1006.4 |
| 20260902223348 | 88 | 217 | 0.9 | 4.3 | 0.00 | 0.00 | 0.00 | 23 | 1006.4 |
| 20260902221828 | 90 | 172 | 0.0 | 1.7 | 0.00 | 0.00 | 0.00 | 24 | 1006.5 |
| 20260902220330 | 88 | 215 | 0.0 | 0.9 | 0.00 | 0.00 | 0.00 | 24 | 1006.7 |
| 20260902214852 | 86 | 217 | 0.0 | 0.0 | 0.00 | 0.00 | 0.00 | 26 | 1006.8 |
| 20260902213352 | 86 | 176 | 0.0 | 1.7 | 0.00 | 0.00 | 0.00 | 25 | 1007.0 |
| 20260902211846 | 86 | 291 | 0.0 | 1.7 | 0.00 | 0.00 | 0.00 | 25 | 1007.1 |
| 20260902210346 | 86 | 142 | 0.0 | 1.7 | 0.00 | 0.00 | 0.00 | 25 | 1007.1 |
| 20260902204912 | 86 | 152 | 0.0 | 1.7 | 0.00 | 0.00 | 0.00 | 26 | 1007.6 |
| 20260902203348 | 84 | 184 | 0.0 | 3.5 | 0.00 | 0.00 | 0.00 | 27 | 1007.7 |
| 20260902201852 | 87 | 232 | 0.0 | 1.7 | 0.00 | 0.00 | 0.00 | 25 | 1007.7 |
| 20260902200346 | 87 | 204 | 0.0 | 5.2 | 0.00 | 0.00 | 0.00 | 26 | 1007.8 |
| 20260902194853 | 88 | 248 | 0.9 | 3.5 | 0.00 | 0.00 | 0.00 | 25 | 1007.8 |
| 20260902193333 | 86 | 360 | 0.0 | 2.6 | 0.00 | 0.00 | 0.00 | 26 | 1008.1 |
| 20260902191843 | 86 | 136 | 0.9 | 5.2 | 0.00 | 0.00 | 0.00 | 25 | 1008.2 |
| 20260902190340 | 86 | 178 | 0.0 | 2.6 | 0.00 | 0.00 | 0.00 | 28 | 1008.3 |
| 20260902184835 | 85 | 232 | 0.9 | 2.6 | 0.00 | 0.00 | 0.00 | 27 | 1008.5 |
| 20260902183334 | 84 | 33 | 0.0 | 1.7 | 0.00 | 0.00 | 0.00 | 30 | 1008.7 |
| 20260902181841 | 84 | 315 | 0.0 | 1.7 | 0.00 | 0.00 | 0.00 | 29 | 1009.0 |
| 20260902180403 | 84 | 107 | 0.0 | 1.7 | 0.00 | 0.00 | 0.00 | 31 | 1009.3 |
| 20260902174845 | 83 | 173 | 0.9 | 3.5 | 0.00 | 0.00 | 0.00 | 31 | 1009.6 |
| 20260902173351 | 82 | 215 | 0.0 | 1.7 | 0.00 | 0.00 | 0.00 | 37 | 1009.7 |
| 20260902171832 | 79 | 52 | 0.0 | 1.7 | 0.00 | 0.00 | 0.00 | 42 | 1010.0 |
| 20260902170340 | 78 | 5 | 0.0 | 1.7 | 0.00 | 0.00 | 0.00 | 43 | 1010.1 |
| 20260902164852 | 76 | 24 | 0.0 | 1.7 | 0.00 | 0.00 | 0.00 | 44 | 1010.1 |
| 20260902163351 | 74 | 47 | 0.0 | 1.7 | 0.00 | 0.00 | 0.00 | 50 | 1010.2 |
| 20260902161826 | 70 | 18 | 0.0 | 1.7 | 0.00 | 0.00 | 0.00 | 53 | 1010.3 |
| 20260902160405 | 68 | 355 | 0.0 | 1.7 | 0.00 | 0.00 | 0.00 | 54 | 1010.4 |
| 20260902154827 | 67 | 360 | 0.0 | 0.9 | 0.00 | 0.00 | 0.00 | 55 | 1010.6 |
| 20260902153331 | 66 | 10 | 0.0 | 1.7 | 0.00 | 0.00 | 0.00 | 58 | 1010.7 |
| 20260902151833 | 63 | 9 | 0.0 | 1.7 | 0.00 | 0.00 | 0.00 | 60 | 1010.7 |
| 20260902150330 | 60 | 184 | 0.0 | 0.9 | 0.00 | 0.00 | 0.00 | 65 | 1010.8 |
| 20260902144840 | 58 | 178 | 0.0 | 1.7 | 0.00 | 0.00 | 0.00 | 67 | 1011.2 |
| 20260902143400 | 55 | 224 | 0.0 | 0.0 | 0.00 | 0.00 | 0.00 | 74 | 1011.2 |
| 20260902141849 | 53 | 335 | 0.0 | 0.0 | 0.00 | 0.00 | 0.00 | 75 | 1011.2 |
| 20260902140354 | 52 | 321 | 0.0 | 0.0 | 0.00 | 0.00 | 0.00 | 76 | 1011.4 |
| 20260902133403 | 50 | 298 | 0.0 | 0.0 | 0.00 | 0.00 | 0.00 | 81 | 1011.6 |
| 20260902131832 | 49 | 170 | 0.0 | 0.0 | 0.00 | 0.00 | 0.00 | 82 | 1011.5 |